Starlink 30524

operational
NORAD ID: 57965 Int'l Des: 2023-151 Owner: SPXS Country: US Constellation: starlink
LEOCIRCULAR

关于 Starlink 30524

正在加载描述...

实时位置

正在加载3D地球...

即将过境

高度历史

Altitude vs Time

uPlot chart will show altitude changes over time

两行轨道根数

1 57965U 23151B 25350.30304145 .00001209 00000-0 10456-3 0 9990
2 57965 43.0044 71.6001 0001451 267.2113 92.8563 15.02539057123193
Epoch: Dec 16, 2025 • Age: 18 hours

当前状态

高度 563.2 km
速度 7.59 km/s
星下点 42.83°N, 61.52°E
发射日期 Sep 30, 2023
运行时间 2.2 years
类型 internet

技术详情

分类 Payload
质量 730.00 kg
干质量 700.00 kg
总质量 730.00 kg
长度 0.30 m
直径 4.10 m
跨度 29.00 m
形状 Box + pan
制造商 SPXS
平台类型 Starlink V2M
阶段状态 In Orbit
所有者/国家 SPXS/US

大型星座

Loading constellations...